Volver al catálogo

STARLINK-32698

ActivoComunicacionesVLEO
NORAD 62312·PAYLOAD·🇺🇸 United States

Lanzado Dec 13, 2024 desde Vandenberg Space Force Base

Loading…

Próximos Pases (próximas 24 horas)

TLE

ActualizadoSource: CelesTrak SupGP

Época: Sep 15, 2026, 03:31 UTC

1 62312C 24239M   26258.14701389  .00034989  00000+0  10341-2 0  2581
2 62312  53.1592  30.5448 0001178  90.1174  71.7790 15.34363903    13

Sigue STARLINK-32698 en tiempo real con AllMySat

Download on the App Store